******** Week 301 almanac for PRN-01 ******** ID: 01 Health: 063 Eccentricity: 0.2398490906E-003 Time of Applicability(s): 61440.0000 Orbital Inclination(rad): 0.9597051194 Rate of Right Ascen(r/s): -0.8251772291E-008 SQRT(A) (m 1/2): 5153.696777 Right Ascen at Week(rad): -0.2032084873E+001 Argument of Perigee(rad): -1.052113830 Mean Anom(rad): -0.3577860385E+000 Af0(s): 0.4291534424E-004 Af1(s/s): 0.3274180926E-010 week: 301 ******** Week 301 almanac for PRN-02 ******** ID: 02 Health: 000 Eccentricity: 0.1656866074E-001 Time of Applicability(s): 61440.0000 Orbital Inclination(rad): 0.9664162853 Rate of Right Ascen(r/s): -0.8034620388E-008 SQRT(A) (m 1/2): 5153.630859 Right Ascen at Week(rad): -0.2196790442E+001 Argument of Perigee(rad): -1.054628270 Mean Anom(rad): -0.1958761640E+000 Af0(s): -0.2698898315E-003 Af1(s/s): 0.7275957614E-011 week: 301 ******** Week 301 almanac for PRN-03 ******** ID: 03 Health: 000 Eccentricity: 0.5683898926E-002 Time of Applicability(s): 61440.0000 Orbital Inclination(rad): 0.9877062609 Rate of Right Ascen(r/s): -0.7840326581E-008 SQRT(A) (m 1/2): 5153.554199 Right Ascen at Week(rad): -0.1057083538E+001 Argument of Perigee(rad): 1.139466096 Mean Anom(rad): 0.2676606600E+001 Af0(s): 0.6446838379E-003 Af1(s/s): 0.7275957614E-011 week: 301 ******** Week 301 almanac for PRN-04 ******** ID: 04 Health: 000 Eccentricity: 0.3227233887E-002 Time of Applicability(s): 61440.0000 Orbital Inclination(rad): 0.9671293467 Rate of Right Ascen(r/s): -0.7474597061E-008 SQRT(A) (m 1/2): 5153.633301 Right Ascen at Week(rad): 0.1893470084E-001 Argument of Perigee(rad): -2.958699150 Mean Anom(rad): -0.6423061435E+000 Af0(s): 0.5111694336E-003 Af1(s/s): 0.7275957614E-011 week: 301 ******** Week 301 almanac for PRN-05 ******** ID: 05 Health: 000 Eccentricity: 0.5590438843E-002 Time of Applicability(s): 61440.0000 Orbital Inclination(rad): 0.9745355977 Rate of Right Ascen(r/s): -0.7988904198E-008 SQRT(A) (m 1/2): 5153.687012 Right Ascen at Week(rad): -0.1111430500E+001 Argument of Perigee(rad): 1.324718245 Mean Anom(rad): 0.2189293186E-001 Af0(s): -0.1983642578E-003 Af1(s/s): 0.0000000000E+000 week: 301 ******** Week 301 almanac for PRN-06 ******** ID: 06 Health: 000 Eccentricity: 0.3464698792E-002 Time of Applicability(s): 61440.0000 Orbital Inclination(rad): 0.9891563521 Rate of Right Ascen(r/s): -0.7920329914E-008 SQRT(A) (m 1/2): 5153.722168 Right Ascen at Week(rad): -0.2093288309E+001 Argument of Perigee(rad): -0.722145799 Mean Anom(rad): -0.2270390061E+001 Af0(s): -0.1134872437E-003 Af1(s/s): -0.2546585165E-010 week: 301 ******** Week 301 almanac for PRN-07 ******** ID: 07 Health: 000 Eccentricity: 0.1895284653E-001 Time of Applicability(s): 61440.0000 Orbital Inclination(rad): 0.9501237316 Rate of Right Ascen(r/s): -0.7920329914E-008 SQRT(A) (m 1/2): 5153.692871 Right Ascen at Week(rad): 0.1030123526E+001 Argument of Perigee(rad): -2.083527158 Mean Anom(rad): -0.3084623019E+001 Af0(s): -0.1335144043E-004 Af1(s/s): 0.0000000000E+000 week: 301 ******** Week 301 almanac for PRN-08 ******** ID: 08 Health: 000 Eccentricity: 0.1033353806E-001 Time of Applicability(s): 61440.0000 Orbital Inclination(rad): 0.9500158735 Rate of Right Ascen(r/s): -0.7714607059E-008 SQRT(A) (m 1/2): 5153.691406 Right Ascen at Week(rad): 0.3086117302E+001 Argument of Perigee(rad): 0.404576198 Mean Anom(rad): -0.3270824543E+000 Af0(s): 0.4596710205E-003 Af1(s/s): 0.7275957614E-011 week: 301 ******** Week 301 almanac for PRN-09 ******** ID: 09 Health: 000 Eccentricity: 0.3167152405E-002 Time of Applicability(s): 61440.0000 Orbital Inclination(rad): 0.9609335024 Rate of Right Ascen(r/s): -0.7543171346E-008 SQRT(A) (m 1/2): 5153.741699 Right Ascen at Week(rad): -0.4230918251E-001 Argument of Perigee(rad): 2.029034887 Mean Anom(rad): 0.2506058721E+000 Af0(s): 0.5264282227E-003 Af1(s/s): 0.1455191523E-010 week: 301 ******** Week 301 almanac for PRN-10 ******** ID: 10 Health: 000 Eccentricity: 0.1012039185E-001 Time of Applicability(s): 61440.0000 Orbital Inclination(rad): 0.9873287578 Rate of Right Ascen(r/s): -0.7817468486E-008 SQRT(A) (m 1/2): 5153.610840 Right Ascen at Week(rad): -0.1059607341E+001 Argument of Perigee(rad): -2.326088619 Mean Anom(rad): 0.1634761378E+001 Af0(s): -0.2737045288E-003 Af1(s/s): -0.1455191523E-010 week: 301 ******** Week 301 almanac for PRN-11 ******** ID: 11 Health: 000 Eccentricity: 0.1755237579E-002 Time of Applicability(s): 61440.0000 Orbital Inclination(rad): 0.9658290583 Rate of Right Ascen(r/s): -0.8160339911E-008 SQRT(A) (m 1/2): 5153.548340 Right Ascen at Week(rad): -0.2065341846E+001 Argument of Perigee(rad): -2.333258182 Mean Anom(rad): -0.1217861652E+001 Af0(s): -0.7514953613E-003 Af1(s/s): 0.0000000000E+000 week: 301 ******** Week 301 almanac for PRN-12 ******** ID: 12 Health: 000 Eccentricity: 0.9006023407E-002 Time of Applicability(s): 61440.0000 Orbital Inclination(rad): 0.9607058022 Rate of Right Ascen(r/s): -0.7726036106E-008 SQRT(A) (m 1/2): 5153.703613 Right Ascen at Week(rad): 0.2146780272E+001 Argument of Perigee(rad): 1.468235705 Mean Anom(rad): 0.2465234459E+001 Af0(s): -0.5636215210E-003 Af1(s/s): -0.3637978807E-011 week: 301 ******** Week 301 almanac for PRN-13 ******** ID: 13 Health: 000 Eccentricity: 0.8839130402E-002 Time of Applicability(s): 61440.0000 Orbital Inclination(rad): 0.9733191989 Rate of Right Ascen(r/s): -0.7440309919E-008 SQRT(A) (m 1/2): 5153.643555 Right Ascen at Week(rad): 0.1269395317E+000 Argument of Perigee(rad): 0.967484230 Mean Anom(rad): -0.5941314319E+000 Af0(s): 0.6933212280E-003 Af1(s/s): 0.0000000000E+000 week: 301 ******** Week 301 almanac for PRN-14 ******** ID: 14 Health: 000 Eccentricity: 0.5187034607E-002 Time of Applicability(s): 61440.0000 Orbital Inclination(rad): 0.9439938005 Rate of Right Ascen(r/s): -0.7931758961E-008 SQRT(A) (m 1/2): 5153.640625 Right Ascen at Week(rad): 0.2098711546E+001 Argument of Perigee(rad): -2.864202039 Mean Anom(rad): 0.2339078021E+001 Af0(s): 0.5788803101E-003 Af1(s/s): 0.7275957614E-011 week: 301 ******** Week 301 almanac for PRN-15 ******** ID: 15 Health: 000 Eccentricity: 0.1612758636E-001 Time of Applicability(s): 61440.0000 Orbital Inclination(rad): 0.9381574830 Rate of Right Ascen(r/s): -0.7806039439E-008 SQRT(A) (m 1/2): 5153.700195 Right Ascen at Week(rad): -0.1760085661E+000 Argument of Perigee(rad): 1.387531687 Mean Anom(rad): -0.1329787946E+001 Af0(s): 0.2508163452E-003 Af1(s/s): 0.3637978807E-011 week: 301 ******** Week 301 almanac for PRN-16 ******** ID: 16 Health: 000 Eccentricity: 0.1448678970E-001 Time of Applicability(s): 61440.0000 Orbital Inclination(rad): 0.9600766304 Rate of Right Ascen(r/s): -0.7714607059E-008 SQRT(A) (m 1/2): 5153.619629 Right Ascen at Week(rad): 0.2164356636E+001 Argument of Perigee(rad): 0.868399407 Mean Anom(rad): 0.6931387315E+000 Af0(s): -0.7915496826E-004 Af1(s/s): 0.1091393642E-010 week: 301 ******** Week 301 almanac for PRN-17 ******** ID: 17 Health: 000 Eccentricity: 0.1332473755E-001 Time of Applicability(s): 61440.0000 Orbital Inclination(rad): 0.9658290583 Rate of Right Ascen(r/s): -0.7543171346E-008 SQRT(A) (m 1/2): 5153.569824 Right Ascen at Week(rad): -0.3098835186E+001 Argument of Perigee(rad): -1.242040950 Mean Anom(rad): -0.3407781763E+000 Af0(s): 0.4777908325E-003 Af1(s/s): -0.1818989404E-010 week: 301 ******** Week 301 almanac for PRN-18 ******** ID: 18 Health: 000 Eccentricity: 0.4802703857E-002 Time of Applicability(s): 61440.0000 Orbital Inclination(rad): 0.9740502366 Rate of Right Ascen(r/s): -0.8080336578E-008 SQRT(A) (m 1/2): 5153.666016 Right Ascen at Week(rad): -0.2092480498E+001 Argument of Perigee(rad): -2.931141800 Mean Anom(rad): -0.2353720497E+001 Af0(s): -0.6580352783E-003 Af1(s/s): 0.0000000000E+000 week: 301 ******** Week 301 almanac for PRN-19 ******** ID: 19 Health: 000 Eccentricity: 0.1006031036E-001 Time of Applicability(s): 61440.0000 Orbital Inclination(rad): 0.9650440916 Rate of Right Ascen(r/s): -0.7600316584E-008 SQRT(A) (m 1/2): 5153.564453 Right Ascen at Week(rad): -0.3054665453E+001 Argument of Perigee(rad): 2.702940436 Mean Anom(rad): 0.1531466722E+001 Af0(s): 0.5855560303E-003 Af1(s/s): 0.3637978807E-011 week: 301 ******** Week 301 almanac for PRN-20 ******** ID: 20 Health: 000 Eccentricity: 0.3807544708E-002 Time of Applicability(s): 61440.0000 Orbital Inclination(rad): 0.9567090632 Rate of Right Ascen(r/s): -0.8217485148E-008 SQRT(A) (m 1/2): 5153.627930 Right Ascen at Week(rad): -0.1244317203E+001 Argument of Perigee(rad): -2.353713007 Mean Anom(rad): -0.1986764654E+001 Af0(s): 0.3671646118E-003 Af1(s/s): 0.0000000000E+000 week: 301 ******** Week 301 almanac for PRN-21 ******** ID: 21 Health: 000 Eccentricity: 0.2592802048E-001 Time of Applicability(s): 61440.0000 Orbital Inclination(rad): 0.9606638574 Rate of Right Ascen(r/s): -0.8034620388E-008 SQRT(A) (m 1/2): 5153.571289 Right Ascen at Week(rad): -0.2205353920E+001 Argument of Perigee(rad): -0.461203158 Mean Anom(rad): -0.4868396624E+000 Af0(s): 0.1010894775E-003 Af1(s/s): 0.0000000000E+000 week: 301 ******** Week 301 almanac for PRN-23 ******** ID: 23 Health: 000 Eccentricity: 0.4985809326E-002 Time of Applicability(s): 61440.0000 Orbital Inclination(rad): 0.9824212177 Rate of Right Ascen(r/s): -0.7908900866E-008 SQRT(A) (m 1/2): 5153.587891 Right Ascen at Week(rad): -0.1089718081E+001 Argument of Perigee(rad): -2.857956760 Mean Anom(rad): 0.2813540601E+001 Af0(s): 0.4024505615E-003 Af1(s/s): 0.7275957614E-011 week: 301 ******** Week 301 almanac for PRN-24 ******** ID: 24 Health: 000 Eccentricity: 0.1643657684E-001 Time of Applicability(s): 61440.0000 Orbital Inclination(rad): 0.9339869727 Rate of Right Ascen(r/s): -0.8046049436E-008 SQRT(A) (m 1/2): 5153.621582 Right Ascen at Week(rad): 0.9290017599E+000 Argument of Perigee(rad): 1.044588486 Mean Anom(rad): -0.2195073702E+001 Af0(s): -0.4644393921E-003 Af1(s/s): 0.3637978807E-011 week: 301 ******** Week 301 almanac for PRN-25 ******** ID: 25 Health: 000 Eccentricity: 0.1233053207E-001 Time of Applicability(s): 61440.0000 Orbital Inclination(rad): 0.9487335615 Rate of Right Ascen(r/s): -0.7920329914E-008 SQRT(A) (m 1/2): 5153.620117 Right Ascen at Week(rad): 0.2057603033E+001 Argument of Perigee(rad): 1.109541112 Mean Anom(rad): 0.2293222257E+001 Af0(s): 0.4968643188E-003 Af1(s/s): 0.0000000000E+000 week: 301 ******** Week 301 almanac for PRN-26 ******** ID: 26 Health: 000 Eccentricity: 0.9819030762E-002 Time of Applicability(s): 61440.0000 Orbital Inclination(rad): 0.9294569357 Rate of Right Ascen(r/s): -0.8126052768E-008 SQRT(A) (m 1/2): 5153.690430 Right Ascen at Week(rad): 0.1990815322E+001 Argument of Perigee(rad): 0.607651136 Mean Anom(rad): 0.1500107002E+001 Af0(s): -0.4577636719E-004 Af1(s/s): -0.1455191523E-010 week: 301 ******** Week 301 almanac for PRN-27 ******** ID: 27 Health: 000 Eccentricity: 0.1319360733E-001 Time of Applicability(s): 61440.0000 Orbital Inclination(rad): 0.9590879318 Rate of Right Ascen(r/s): -0.7634603726E-008 SQRT(A) (m 1/2): 5153.644531 Right Ascen at Week(rad): 0.3114548003E+001 Argument of Perigee(rad): 0.809241528 Mean Anom(rad): -0.2334613148E+000 Af0(s): -0.3337860107E-004 Af1(s/s): 0.0000000000E+000 week: 301 ******** Week 301 almanac for PRN-28 ******** ID: 28 Health: 000 Eccentricity: 0.4186630249E-003 Time of Applicability(s): 61440.0000 Orbital Inclination(rad): 0.9611971554 Rate of Right Ascen(r/s): -0.7771752296E-008 SQRT(A) (m 1/2): 5153.735840 Right Ascen at Week(rad): 0.9996877144E+000 Argument of Perigee(rad): 1.401624386 Mean Anom(rad): 0.1987928622E+001 Af0(s): -0.5340576172E-003 Af1(s/s): -0.1091393642E-010 week: 301 ******** Week 301 almanac for PRN-29 ******** ID: 29 Health: 000 Eccentricity: 0.2917766571E-002 Time of Applicability(s): 61440.0000 Orbital Inclination(rad): 0.9683457455 Rate of Right Ascen(r/s): -0.7554600394E-008 SQRT(A) (m 1/2): 5153.679688 Right Ascen at Week(rad): -0.3083230227E+001 Argument of Perigee(rad): 2.634441977 Mean Anom(rad): -0.3712881404E+000 Af0(s): -0.5474090576E-003 Af1(s/s): 0.3637978807E-011 week: 301 ******** Week 301 almanac for PRN-30 ******** ID: 30 Health: 000 Eccentricity: 0.7271766663E-002 Time of Applicability(s): 61440.0000 Orbital Inclination(rad): 0.9352992454 Rate of Right Ascen(r/s): -0.8080336578E-008 SQRT(A) (m 1/2): 5153.680664 Right Ascen at Week(rad): 0.1027282516E+001 Argument of Perigee(rad): -2.449326523 Mean Anom(rad): 0.3021928295E+001 Af0(s): -0.2403259277E-003 Af1(s/s): 0.7275957614E-011 week: 301 ******** Week 301 almanac for PRN-31 ******** ID: 31 Health: 000 Eccentricity: 0.1069116592E-001 Time of Applicability(s): 61440.0000 Orbital Inclination(rad): 0.9540126125 Rate of Right Ascen(r/s): -0.7851755629E-008 SQRT(A) (m 1/2): 5153.546387 Right Ascen at Week(rad): 0.1052606307E+001 Argument of Perigee(rad): 0.793990104 Mean Anom(rad): 0.2161262084E+001 Af0(s): -0.2183914185E-003 Af1(s/s): 0.0000000000E+000 week: 301 ******** Week 301 almanac for PRN-32 ******** ID: 32 Health: 000 Eccentricity: 0.8296966553E-002 Time of Applicability(s): 61440.0000 Orbital Inclination(rad): 0.9642171801 Rate of Right Ascen(r/s): -0.7531742299E-008 SQRT(A) (m 1/2): 5153.734375 Right Ascen at Week(rad): -0.2679073478E-001 Argument of Perigee(rad): -2.106945457 Mean Anom(rad): 0.3434053431E+000 Af0(s): -0.5426406860E-003 Af1(s/s): 0.7275957614E-011 week: 301